Content
SEND FEEDBACK

Daily
Averages
Monthly
Summary
United States of America

NEW YORK - CENTRAL PARK, NEW YORK


Home > North America > United States > New York
Elevation: 14 feet     Latitude: 40 47N     Longitude: 073 58W

WEATHER
 
SELECT A DAY
Number of Records: 148,086;   Date Range: 11/1/95 - 7/26/14
 
SHARE

PRINT THIS DATA

[ ← Previous Day ]
WEATHER ALMANAC - FEBRUARY 10, 2013
[ Next Day → ]
[ °C ]   °F
Weather ElementAverageHighLow
Temperature27.4 °F35.1 °F (2:51 pm)18 °F (6:51 am)
Dewpoint11.6 °F21 °F (10:51 pm)6.1 °F (1:51 am)
Humidity52.4 %65 % (6:51 am)35 % (3:51 pm)
Barometer30.40 in30.48 in (10:51 am)30.33 in (11:51 pm)
Wind Speed3 mph10.4 mph (1:51 am)
Wind Gust18.4 mph (1:51 am)
Weather ElementAverage
Visibility10 mi
Wind DirectionE (87.4 °)

Weather ElementTotal
Precipitation---
Heating Degree Days38.5 (Base 65)
Averaged from 23 records on February 10, 2013
WEATHER CONDITIONS BREAKOUT
WIND DIRECTION BREAKOUT
WEATHER BY HOUR - FEBRUARY 10, 2013
[ °C ]   °F
Local TimeTemperatureDewpointHumidityBarometerVisibilityWind DirectionWind SpeedGust SpeedPrecipitationEventsConditions
1:51 AM19.9 °F6.1 °F55 %30.35 in10.0 miWNW (300°)10.4 mph18.4 mphClear
2:51 AM19.0 °F6.1 °F57 %30.39 in10.0 miNW (310°)8.1 mphClear
3:51 AM19.0 °F7.0 °F59 %30.35 in10.0 miVariable3.5 mphClear
4:51 AM19.0 °F7.0 °F59 %30.37 in10.0 miVariable3.5 mphClear
5:51 AM19.0 °F8.1 °F62 %30.39 in10.0 miCalmClear
6:51 AM18.0 °F8.1 °F65 %30.41 in10.0 miVariable3.5 mphClear
7:51 AM19.0 °F7.0 °F59 %30.43 in10.0 miVariable3.5 mphClear
8:51 AM19.9 °F7.0 °F57 %30.46 in10.0 miCalmClear
9:51 AM21.9 °F7.0 °F53 %30.47 in10.0 miVariable3.5 mphClear
10:51 AM25.0 °F10.0 °F53 %30.48 in10.0 miWNW (290°)4.6 mphClear
11:51 AM28.9 °F10.9 °F47 %30.47 in10.0 miCalmClear
12:51 PM32.0 °F10.9 °F42 %30.43 in10.0 miCalmClear
1:51 PM33.1 °F12.0 °F42 %30.41 in10.0 miCalmClear
2:51 PM35.1 °F12.9 °F40 %30.41 in10.0 miWNW (290°)3.5 mphClear
3:51 PM35.1 °F10.0 °F35 %30.38 in10.0 miWNW (290°)4.6 mphClear
4:51 PM35.1 °F12.0 °F39 %30.37 in10.0 miCalmClear
5:51 PM33.1 °F12.9 °F43 %30.38 in10.0 miCalmClear
6:51 PM33.1 °F15.1 °F48 %30.38 in10.0 miCalmClear
7:51 PM32.0 °F16.0 °F52 %30.38 in10.0 miSouth (170°)5.8 mphClear
8:51 PM32.0 °F19.0 °F59 %30.37 in10.0 miCalmClear
9:51 PM33.1 °F19.9 °F59 %30.36 in10.0 miSouth (190°)8.1 mphClear
10:51 PM33.1 °F21.0 °F61 %30.34 in10.0 miSouth (170°)3.5 mphClear
11:51 PM34.0 °F21.0 °F59 %30.33 in10.0 miVariable3.5 mphClear
Hourly data recorded from KNYC, located miles away from New York - Central Park, New York







STORIES FROM OUR PARTNERS